Tracking 33197 objects as of 18-Feb-2026
HD Live streaming from Space Station
objects crossing your sky now

USA 207

Track USA 207 now!
USA 207 is classified as:


NORAD ID: 35815
Int'l Code: 2009-047A
Perigee: 35,740.6 km
Apogee: 35,851.5 km
Inclination: 0.1 °
Period: 1,436.2 minutes
Semi major axis: 42167 km
RCS: Unknown
Launch date: September 8, 2009
Source: United States (US)
Launch site: AIR FORCE EASTERN TEST RANGE (AFETR)

USA 207 is an U.S. government communications satellite
Your satellite tracking list
Your tracking list is empty




NASA's NSSDC Master Catalog

Two Line Element Set (TLE):
1 35815U 09047A   25093.83785948 0.00000000  00000-0  00000-0 0    06
2 35815   0.1323 155.1999 0013141 221.9118 138.0437  1.00263576    02
Source of the keplerian elements: McCants